COSMOS 2228

Last updated on Sun Apr 12 2026 00:02:17 GMT+0000 (Coordinated Universal Time)

1 22286U 92094A 26101.53395730 .00001866 00000+0 15793-3 0 9997 2 22286 82.5204 205.8656 0017830 186.9707 173.1271 14.97371090780976
UTC large
Height (km)
Speed (km/s)
/
Latitude / Longitude
Inclination (degrees)
Orbital Period (minutes)
Azimuth
Elevation
Range (km)
Doppler Factor

Next 0 passes for location: London (51.5072 / 0.1276)

Sorry there are no passes over London.
COSMOS 2228